Weather History for KGDB - October, 2012

Change the Weather History Date:

Wednesday, October 31, 2012

  Actual Average (KMVE) Record (KMVE)
Temperature  
Mean Temperature 40 °F -  
Max Temperature 55 °F 52 °F 84 °F (1950)
Min Temperature 26 °F 32 °F 12 °F (1993)
Degree Days  
Heating Degree Days 24    
Moisture  
Dew Point 30 °F    
Average Humidity 68    
Maximum Humidity 100    
Minimum Humidity 36    
Precipitation  
Precipitation 0.00 in - - ()
Sea Level Pressure  
Sea Level Pressure 30.02 in    
Wind  
Wind Speed 0 mph (East)    
Max Wind Speed 4 mph    
Max Gust Speed -    
Visibility 8 miles    
Events      
Averages and records for this station are not official NWS values.
T = Trace of Precipitation, MM = Missing Value Source: NWS Daily Summary

Daily Weather History Graph

Daily Weather History Graph

Search for Another Location

Airport or City:

Trip Planner

Search our weather history database for the weather conditions in past years. The results will help you decide how hot, cold, wet, or windy it might be!

Date:

Astronomy

Oct. 31, 2012 Rise Set
Actual Time 7:59 AM CDT 6:11 PM CDT
Civil Twilight 7:29 AM CDT 6:41 PM CDT
Nautical Twilight 6:54 AM CDT 7:16 PM CDT
Astronomical Twilight 6:20 AM CDT 7:50 PM CDT
Moon 7:18 PM CDT 9:46 AM CDT
Length of Visible Light 11h 12m
Length of Day
10h 11m
Full, 97% of the Moon is Illuminated
Oct 31
Full
Nov 6
Last Quarter
Nov 13
New
Nov 20
First Quarter
Nov 28
Full

Hourly Weather History & Observations

Time (CDT) Temp. Windchill Dew Point Humidity Pressure Visibility Wind Dir Wind Speed Gust Speed Precip Events Conditions
12:32 AM 40.1 °F - 31.1 °F 70% 30.10 in 10.0 mi Calm Calm - N/A   Overcast
12:52 AM 40.1 °F - 31.5 °F 71% 30.09 in 7.0 mi Calm Calm - N/A   Overcast
1:12 AM 40.1 °F - 32.0 °F 73% 30.09 in 10.0 mi Calm Calm - N/A   Overcast
1:32 AM 39.9 °F - 32.0 °F 73% 30.09 in 10.0 mi Calm Calm - N/A   Overcast
1:52 AM 38.8 °F 36.5 °F 31.8 °F 76% 30.08 in 10.0 mi East 3.5 mph - N/A   Overcast
2:12 AM 38.1 °F - 31.3 °F 76% 30.08 in 7.0 mi Calm Calm - N/A   Mostly Cloudy
2:32 AM 37.0 °F - 30.0 °F 76% 30.08 in 10.0 mi Calm Calm - N/A   Scattered Clouds
2:52 AM 36.5 °F - 29.3 °F 75% 30.09 in 10.0 mi Calm Calm - N/A   Scattered Clouds
3:11 AM 35.6 °F - 29.1 °F 77% 30.08 in 10.0 mi Calm Calm - N/A   Mostly Cloudy
3:32 AM 35.8 °F - 29.3 °F 77% 30.08 in 10.0 mi Calm Calm - N/A   Scattered Clouds
3:52 AM 32.9 °F - 28.0 °F 82% 30.08 in 10.0 mi Calm Calm - N/A   Mostly Cloudy
4:11 AM 31.1 °F - 27.5 °F 87% 30.08 in 10.0 mi Calm Calm - N/A   Overcast
4:32 AM 34.7 °F - 28.8 °F 79% 30.07 in 7.0 mi Calm Calm - N/A   Overcast
4:52 AM 33.4 °F - 29.5 °F 85% 30.08 in 10.0 mi Calm Calm - N/A   Overcast
5:12 AM 33.4 °F - 29.8 °F 87% 30.07 in 10.0 mi Calm Calm - N/A   Overcast
5:32 AM 31.6 °F - 27.5 °F 85% 30.07 in 7.0 mi Calm Calm - N/A   Mostly Cloudy
5:52 AM 32.0 °F - 27.3 °F 83% 30.06 in 10.0 mi Calm Calm - N/A   Clear
6:12 AM 31.6 °F - 26.8 °F 82% 30.06 in 10.0 mi Calm Calm - N/A   Clear
6:32 AM 28.2 °F - 25.3 °F 89% 30.06 in 7.0 mi Calm Calm - N/A   Clear
6:52 AM 28.9 °F - 26.4 °F 90% 30.07 in 7.0 mi Calm Calm - N/A   Mostly Cloudy
7:12 AM 27.5 °F - 25.5 °F 92% 30.06 in 10.0 mi Calm Calm - N/A   Scattered Clouds
7:30 AM 28.8 °F - 26.4 °F 91% 30.06 in 10.0 mi Calm Calm - N/A   Clear
7:45 AM 28.4 °F - 26.6 °F 93% 30.06 in 7.0 mi Calm Calm - N/A   Scattered Clouds
8:05 AM 28.4 °F - 26.6 °F 93% 30.06 in 7.0 mi Calm Calm - N/A   Scattered Clouds
8:25 AM 26.6 °F - 24.8 °F 93% 30.06 in 7.0 mi Calm Calm - N/A   Clear
8:45 AM 26.6 °F - 26.6 °F 100% 30.06 in 5.0 mi Calm Calm - N/A   Clear
9:05 AM 30.2 °F - 28.4 °F 93% 30.06 in 5.0 mi Calm Calm - N/A   Clear
9:25 AM 33.8 °F - 30.2 °F 87% 30.06 in 5.0 mi Calm Calm - N/A   Clear
9:45 AM 35.6 °F - 30.2 °F 81% 30.06 in 7.0 mi Calm Calm - N/A   Clear
10:05 AM 37.4 °F - 28.4 °F 70% 30.06 in 10.0 mi Calm Calm - N/A   Clear
10:25 AM 39.2 °F - 26.6 °F 61% 30.06 in 7.0 mi Calm Calm - N/A   Scattered Clouds
10:45 AM 41.0 °F - 26.6 °F 57% 30.05 in 7.0 mi Calm Calm - N/A   Scattered Clouds
11:05 AM 41.0 °F - 28.4 °F 61% 30.05 in 7.0 mi Calm Calm - N/A   Clear
11:25 AM 42.8 °F - 28.4 °F 57% 30.05 in 10.0 mi Calm Calm - N/A   Clear
11:45 AM 42.8 °F - 28.4 °F 57% 30.05 in 7.0 mi Calm Calm - N/A   Clear
12:05 PM 44.6 °F - 28.4 °F 53% 30.05 in 10.0 mi Calm Calm - N/A   Clear
12:25 PM 46.4 °F - 28.4 °F 50% 30.04 in 10.0 mi Calm Calm - N/A   Clear
12:45 PM 48.2 °F - 28.4 °F 46% 30.03 in 7.0 mi Calm Calm - N/A   Clear
1:25 PM 51.8 °F - 28.4 °F 41% 30.01 in 5.0 mi Calm Calm - N/A   Clear
2:05 PM 51.8 °F - 28.4 °F 41% 30.00 in 5.0 mi Calm Calm - N/A   Clear
2:45 PM 53.6 °F - 28.4 °F 38% 29.98 in 7.0 mi Calm Calm - N/A   Clear
3:05 PM 55.4 °F - 28.4 °F 36% 29.98 in 10.0 mi Calm Calm - N/A   Clear
3:25 PM 55.4 °F - 30.2 °F 38% 29.97 in 10.0 mi Calm Calm - N/A   Clear
3:45 PM 55.4 °F - 30.2 °F 38% 29.97 in 7.0 mi Calm Calm - N/A   Clear
4:05 PM 55.4 °F - 32.0 °F 41% 29.96 in 5.0 mi Calm Calm - N/A   Clear
4:25 PM 55.4 °F - 32.0 °F 41% 29.97 in 10.0 mi Calm Calm - N/A   Clear
4:45 PM 53.6 °F - 30.2 °F 41% 29.96 in 7.0 mi Calm Calm - N/A   Clear
5:04 PM - - - N/A% 29.96 in 5.0 mi Calm Calm - N/A   Haze
5:32 PM 54.1 °F - 32.4 °F 44% 29.95 in 10.0 mi Calm Calm - N/A   Clear
5:52 PM 52.7 °F - 32.4 °F 46% 29.96 in 7.0 mi Calm Calm - N/A   Clear
6:32 PM 50.9 °F - 32.0 °F 48% 29.95 in 10.0 mi Calm Calm - N/A   Clear
6:51 PM 48.9 °F - 32.0 °F 52% 29.96 in 7.0 mi Calm Calm - N/A   Clear
7:32 PM 43.0 °F - 32.0 °F 65% 29.96 in 7.0 mi Calm Calm - N/A   Clear
7:52 PM 44.8 °F - 32.2 °F 61% 29.95 in 7.0 mi Calm Calm - N/A   Scattered Clouds
8:12 PM 46.0 °F - 33.8 °F 62% 29.95 in 10.0 mi Calm Calm - N/A   Overcast
8:32 PM 46.8 °F - 33.8 °F 61% 29.95 in 10.0 mi Calm Calm - N/A   Overcast
8:52 PM 48.7 °F - 32.9 °F 54% 29.94 in 7.0 mi Calm Calm - N/A   Mostly Cloudy
9:12 PM 48.0 °F - 32.9 °F 56% 29.95 in 7.0 mi Calm Calm - N/A   Scattered Clouds
9:32 PM 46.2 °F - 34.0 °F 62% 29.95 in 7.0 mi Calm Calm - N/A   Mostly Cloudy
9:52 PM 46.4 °F - 33.4 °F 61% 29.95 in 10.0 mi Calm Calm - N/A   Overcast
10:12 PM 44.6 °F - 33.4 °F 65% 29.95 in 7.0 mi Calm Calm - N/A   Scattered Clouds
10:32 PM 42.1 °F - 33.3 °F 71% 29.95 in 7.0 mi Calm Calm - N/A   Mostly Cloudy
10:52 PM 40.8 °F - 33.8 °F 76% 29.95 in 7.0 mi Calm Calm - N/A   Overcast
11:12 PM 41.9 °F - 34.7 °F 76% 29.95 in 7.0 mi Calm Calm - N/A   Overcast
11:32 PM 41.7 °F - 34.0 °F 74% 29.96 in 7.0 mi Calm Calm - N/A   Overcast
11:52 PM 42.8 °F - 34.7 °F 73% 29.96 in 10.0 mi Calm Calm - N/A   Overcast